This is the latest recevied weather packets stored in our database for station/object F4BBI-13. If no packets are shown the sender has not sent any weather packets the latest 1 day(s).
| Time | Temp. | Humidity | Pressure | Rain* | Wind** | Luminosity | Snow |
|---|---|---|---|---|---|---|---|
| 1778017210 | 10.56° C | 90% | 944 hPa | 0 mm | 0 m/s | 0 W/m² | - |
| 1778016606 | 10° C | 90% | 944 hPa | 0 mm | 0 m/s | 0 W/m² | - |
| 1778016002 | 10° C | 89% | 944 hPa | 0 mm | 0 m/s | 0 W/m² | - |
| 1778015397 | 9.44° C | 89% | 944 hPa | 0 mm | 0 m/s | 0 W/m² | - |
| 1778014793 | 8.89° C | 89% | 944 hPa | 0 mm | 0 m/s | 0 W/m² | - |
| 1778014189 | 8.89° C | 88% | 944 hPa | 0 mm | 0 m/s | 0 W/m² | - |
| 1778013584 | 8.89° C | 88% | 944 hPa | 0 mm | 0 m/s | 0 W/m² | - |
| 1778012980 | 8.89° C | 88% | 944 hPa | 0 mm | 0 m/s | 0 W/m² | - |
| 1778012376 | 9.44° C | 88% | 944 hPa | 0 mm | 0 m/s | 0 W/m² | - |
| 1778011771 | 8.89° C | 87% | 944 hPa | 0 mm | 0 m/s | 0 W/m² | - |
| 1778011167 | 8.89° C | 87% | 944 hPa | 0 mm | 0 m/s | 0 W/m² | - |
| 1778010563 | 8.89° C | 87% | 944 hPa | 0 mm | 0 m/s | 0 W/m² | - |
| 1778009959 | 9.44° C | 87% | 944 hPa | 0 mm | 0 m/s | 0 W/m² | - |
| 1778009354 | 9.44° C | 86% | 944 hPa | 0 mm | 0 m/s | 0 W/m² | - |
| 1778008750 | 9.44° C | 86% | 944 hPa | 0 mm | 0 m/s | 0 W/m² | - |
| 1778008146 | 9.44° C | 85% | 944 hPa | 0 mm | 0 m/s | 0 W/m² | - |
| 1778007541 | 10° C | 84% | 944 hPa | 0 mm | 0 m/s | 0 W/m² | - |
| 1778006937 | 10° C | 83% | 944 hPa | 0 mm | 0 m/s | 0 W/m² | - |
| 1778006333 | 10.56° C | 82% | 944 hPa | 0 mm | 0 m/s | 1 W/m² | - |
| 1778005728 | 11.11° C | 82% | 944 hPa | 0 mm | 0 m/s | 3 W/m² | - |
| 1778005124 | 11.67° C | 80% | 944 hPa | 0 mm | 0 m/s | 5 W/m² | - |
| 1778004520 | 12.22° C | 80% | 944 hPa | 0 mm | 0 m/s | 8 W/m² | - |
| 1778003916 | 12.78° C | 81% | 944 hPa | 0 mm | 0 m/s | 13 W/m² | - |
| 1778003311 | 12.78° C | 81% | 944 hPa | 0 mm | 0 m/s | 38 W/m² | - |
| 1778002707 | 12.78° C | 80% | 944 hPa | 0 mm | 0 m/s | 22 W/m² | - |
* Rain latest hour (hover to see other rain measurements)
** Current wind speed in m/s (hover to see current wind gust speed)